Voltar ao catálogo

COSMOS 1024 DEB

LostHEO
NORAD 26975·DEBRIS·🇷🇺 Russia

Lançado Jun 28, 1978 de Plesetsk Cosmodrome

Loading…

Próximas Passagens (próximas 24 horas)

TLE

ObsoletoSource: Space-Track

Época: Sep 14, 2025, 22:35 UTC

1 26975U 78066F   25257.94102217  .00000138  00000-0  00000-0 0  9995
2 26975  65.4674  96.6522 6281946 343.4588   3.0392  2.05701639211974

Acompanhe COSMOS 1024 DEB em tempo real com AllMySat

Download on the App Store